"Pseudo-MPEC" for C8GK572

Created 2022 Nov 27 7:22:10 UT using Find_Orb

Click here for an explanation of pseudo-MPECs

 
 Astrometry: 
     C8GK572  C2022 10 05.37666603 27 36.979+42 18 52.74   ~BR6b 22.62GVNEOCPG96
     C8GK572  C2022 10 05.38696003 27 37.465+42 19 03.50   ~BR6b 21.86GVNEOCPG96
     C8GK572  C2022 10 05.39229803 27 37.670+42 19 08.76   ~BR6b 21.87GVNEOCPG96
     C8GK572  C2022 11 01.28775 03 36 24.34 +48 38 01.9    ~BR5q 21.8 GVNEOCPG96
     C8GK572  C2022 11 01.29299 03 36 24.35 +48 38 05.2    ~BR5q       VNEOCPG96
     C8GK572*1C2022 11 23.39596703 25 49.753+49 59 45.60   ~BNAb 20.68GVNEOCPG96
     C8GK572 1C2022 11 23.40183103 25 49.483+49 59 44.41   ~BNAb 20.81GVNEOCPG96
     C8GK572 1C2022 11 23.40772403 25 49.271+49 59 42.61   ~BNAb 20.62GVNEOCPG96
     C8GK572 1C2022 11 23.41358203 25 49.069+49 59 41.82   ~BNAb 21.18GVNEOCPG96
     C8GK572 mC2022 11 24.17908303 25 24.870+49 57 13.40   ~BO5M       VNEOCPI52
     C8GK572 mC2022 11 24.18937303 25 24.480+49 57 11.30   ~BO5M       VNEOCPI52
     C8GK572 mC2022 11 24.20266103 25 23.930+49 57 09.80   ~BO5M       VNEOCPI52
     C8GK572 KC2022 11 27.14567603 23 51.317+49 44 09.53   ~BR4b 20.22GVNEOCPI52
     C8GK572 KC2022 11 27.15478903 23 50.975+49 44 06.36   ~BR4b 20.41GVNEOCPI52
     C8GK572 KC2022 11 27.16508703 23 50.626+49 44 04.02   ~BR4b 21.46GVNEOCPI52
     C8GK572 KC2022 11 27.17421903 23 50.284+49 44 00.96   ~BR4b 21.08GVNEOCPI52

Station data:
(G96) Mt. Lemmon Survey  (N32.442751 W110.788720)  US/Arizona.  Observers T.
   A. Pruyne, B. M. Africano, E. J. Christensen, G. A. Farneth, D. C. Fuls,
   A. R. Gibbs, A. D. Grauer, H. Gröller, J. A. Johnson, R. A. Kowalski, S.
   M. Larson, G. J. Leonard, D. Rankin, R. L. Seaman, F. C. Shelly, K. W.
   Wierzchoś. 1.5-m reflector + 10K CCD.
(I52) Steward Observatory, Mt. Lemmon Station  (N32.442544 W110.788920)
   US/Arizona.  Observers T. A. Pruyne, B. M. Africano, E. J. Christensen, G.
   A. Farneth, D. C. Fuls, A. R. Gibbs, A. D. Grauer, H. Gröller, J. A.
   Johnson, R. A. Kowalski, S. M. Larson, G. J. Leonard, D. Rankin, R. L.
   Seaman, F. C. Shelly, K. W. Wierzchoś. 1.0-m reflector + CCD.

Orbital elements:  C8GK572
   Perihelion 2022 Dec 21.14474 +/- 0.0193 TT =  3:28:25 (JD 2459934.64474)
Epoch 2022 Nov 27.0 TT = JDT 2459910.5   Earth MOID: 0.6187   Ma: 0.0868
M 354.79490370 +/- 0.0048           (J2000 ecliptic)          AutoNEOCP
n   0.21557890 +/- 3.66e-5          Peri.  118.78665 +/- 0.018
a   2.75464226 +/- 0.000311         Node   318.92736 +/- 0.006
e   0.4331431 +/- 3.35e-5           Incl.   12.16315 +/- 0.00054
P   4.57                   H 20.2   G  0.15   U  5.9
q 1.56148780 +/- 9.18e-5    Q 3.94779672 +/- 0.000536
From 16 observations 2022 Oct. 5-Nov. 27; mean residual 0".25
Residuals in arcseconds: 
221005 G96  .11-  .12-    221123 G96  .13-  .15+    221127 I52  .11+  .38+    
221005 G96  .21+  .15+    221123 G96  .05+  .36-    221127 I52  .09-  .23-    
221005 G96  .15-  .02-    221123 G96  .30+  .15+    221127 I52  .07+  .35+    
221101 G96  .50-  .06-    221124 I52  .19-  .28-    221127 I52  .08-  .08-    
221101 G96  .56+  .10+    221124 I52  .03-  .53-    
221123 G96  .25+  .05+    221124 I52  .23-  .40+    

Ephemerides (geocentric):
Date (UTC) HH   RA             Dec           delta  r     elong  mag " sig PA
---- --------  ------------   ------------  ------ ------ -----  --- --------
2022 11 27 07  03 23 46.170   +49 43 20.64  .64296 1.5763 149.9 21.2 .102  36
2022 11 27 08  03 23 44.944   +49 43 07.14  .64292 1.5763 149.9 21.2 .103  35
2022 11 27 09  03 23 43.722   +49 42 53.58  .64288 1.5762 149.9 21.2 .105  35
2022 11 27 10  03 23 42.502   +49 42 39.96  .64284 1.5762 149.9 21.2 .106  35
2022 11 27 11  03 23 41.285   +49 42 26.27  .64280 1.5761 149.9 21.2 .108  35
2022 11 27 12  03 23 40.070   +49 42 12.52  .64276 1.5761 149.9 21.2 .109  35
2022 11 27 13  03 23 38.859   +49 41 58.72  .64272 1.5760 149.9 21.2 .111  35
2022 11 27 14  03 23 37.649   +49 41 44.85  .64268 1.5760 149.9 21.2 .112  35
2022 11 27 15  03 23 36.443   +49 41 30.91  .64264 1.5759 149.9 21.2 .114  34
2022 11 27 16  03 23 35.239   +49 41 16.92  .64260 1.5759 149.9 21.2 .116  34
2022 11 27 17  03 23 34.038   +49 41 02.86  .64256 1.5758 149.8 21.2 .117  34
2022 11 27 18  03 23 32.840   +49 40 48.75  .64252 1.5758 149.8 21.2 .119  34
2022 11 27 19  03 23 31.645   +49 40 34.57  .64249 1.5757 149.8 21.2 .120  34
2022 11 27 20  03 23 30.452   +49 40 20.33  .64245 1.5757 149.8 21.2 .122  34
2022 11 27 21  03 23 29.262   +49 40 06.03  .64241 1.5756 149.8 21.2 .123  34
2022 11 27 22  03 23 28.075   +49 39 51.67  .64237 1.5756 149.8 21.2 .125  34
2022 11 27 23  03 23 26.891   +49 39 37.25  .64234 1.5755 149.8 21.2 .126  33
2022 11 28 00  03 23 25.709   +49 39 22.76  .64230 1.5755 149.8 21.2 .128  33
2022 11 28 01  03 23 24.531   +49 39 08.22  .64226 1.5754 149.8 21.2 .129  33
2022 11 28 02  03 23 23.355   +49 38 53.61  .64222 1.5754 149.8 21.2 .131  33
2022 11 28 03  03 23 22.182   +49 38 38.95  .64219 1.5753 149.8 21.2 .133  33
2022 11 28 04  03 23 21.012   +49 38 24.22  .64215 1.5753 149.8 21.2 .134  33
2022 11 28 05  03 23 19.845   +49 38 09.43  .64212 1.5752 149.8 21.2 .136  33
2022 11 28 06  03 23 18.680   +49 37 54.58  .64208 1.5752 149.8 21.2 .137  33
2022 11 28 07  03 23 17.519   +49 37 39.67  .64205 1.5751 149.8 21.2 .139  32
2022 11 28 08  03 23 16.361   +49 37 24.70  .64201 1.5751 149.8 21.2 .140  32
2022 11 28 09  03 23 15.205   +49 37 09.67  .64198 1.5750 149.8 21.2 .142  32
2022 11 28 10  03 23 14.052   +49 36 54.58  .64194 1.5750 149.8 21.2 .144  32
2022 11 28 11  03 23 12.903   +49 36 39.43  .64191 1.5749 149.8 21.2 .145  32
2022 11 28 12  03 23 11.756   +49 36 24.21  .64187 1.5749 149.8 21.2 .147  32
2022 11 28 13  03 23 10.612   +49 36 08.94  .64184 1.5748 149.8 21.2 .148  32
2022 11 28 14  03 23 09.472   +49 35 53.61  .64181 1.5748 149.8 21.2 .150  32
2022 11 28 15  03 23 08.334   +49 35 38.21  .64177 1.5747 149.8 21.2 .152  32
2022 11 28 16  03 23 07.199   +49 35 22.76  .64174 1.5747 149.8 21.2 .153  32
2022 11 28 17  03 23 06.068   +49 35 07.25  .64171 1.5746 149.8 21.2 .155  31
2022 11 28 18  03 23 04.939   +49 34 51.67  .64168 1.5746 149.8 21.2 .156  31
2022 11 28 19  03 23 03.813   +49 34 36.04  .64164 1.5745 149.8 21.2 .158  31
2022 11 28 20  03 23 02.691   +49 34 20.34  .64161 1.5745 149.8 21.2 .160  31
2022 11 28 21  03 23 01.571   +49 34 04.59  .64158 1.5744 149.8 21.2 .161  31
2022 11 28 22  03 23 00.455   +49 33 48.77  .64155 1.5744 149.8 21.2 .163  31
2022 11 28 23  03 22 59.342   +49 33 32.90  .64152 1.5743 149.8 21.2 .164  31
2022 11 29 00  03 22 58.232   +49 33 16.96  .64149 1.5743 149.8 21.2 .166  31
2022 11 29 01  03 22 57.125   +49 33 00.97  .64146 1.5742 149.8 21.2 .168  31
2022 11 29 02  03 22 56.021   +49 32 44.92  .64143 1.5742 149.8 21.2 .169  31
2022 11 29 03  03 22 54.920   +49 32 28.80  .64140 1.5741 149.8 21.2 .171  31
2022 11 29 04  03 22 53.822   +49 32 12.63  .64137 1.5741 149.8 21.2 .173  30
2022 11 29 05  03 22 52.728   +49 31 56.40  .64134 1.5740 149.8 21.2 .174  30
2022 11 29 06  03 22 51.636   +49 31 40.11  .64131 1.5740 149.8 21.2 .176  30